Torna al catalogo

QIANFAN-206

AttivoComunicazioniPO
NORAD 69805·PAYLOAD·🇨🇳 China

Lanciato Jul 4, 2026 da Taiyuan Satellite Launch Center

Loading…

Prossimi Passaggi (prossime 24 ore)

TLE

AggiornatoSource: Space-Track

Epoca: Sep 14, 2026, 19:50 UTC

1 69805U 26153F   26257.82692021 -.01899425  00000-0 -12513+1 0  9999
2 69805  88.9974 352.0565 0009270 349.6843  10.4147 14.05643506 10277

Traccia QIANFAN-206 in tempo reale con AllMySat

Download on the App Store